DW9442 Weather Reports


time (UTC)temp
C
wind
direction
speed
KPH
gust
KPH
rain 1hr
cm
rain 24hr
cm
rain mn
cm
humidity
%
barometer
mb
20260906090003 24 345 1.6 6.4 0.00 0.00 0.00 60 1024.6
20260906084535 24 67 1.6 4.8 0.00 0.00 0.00 61 1024.6
20260906083059 23 146 0.0 4.8 0.00 0.00 0.00 60 1024.7
20260906081545 22 131 1.6 6.4 0.00 0.00 0.00 63 1024.6
20260906074531 22 78 1.6 6.4 0.00 0.00 0.00 65 1024.8
20260906073058 21 44 0.0 3.2 0.00 0.00 0.00 67 1024.9
20260906071524 21 100 0.0 4.8 0.00 0.00 0.00 71 1024.8
20260906070003 20 105 0.0 4.8 0.00 0.00 0.00 71 1024.6
20260906064536 20 132 0.0 3.2 0.00 0.00 0.00 72 1024.5
20260906063009 20 122 0.0 0.0 0.00 0.00 0.00 70 1024.5
20260906061529 20 133 0.0 0.0 0.00 0.00 0.00 70 1024.4
20260906054531 18 228 0.0 1.6 0.00 0.00 0.00 77 1024.1
20260906053057 17 316 0.0 1.6 0.00 0.00 0.00 79 1023.8
20260906051525 17 316 0.0 0.0 0.00 0.00 0.00 83 1023.6
20260906050111 17 316 0.0 1.6 0.00 0.00 0.00 84 1023.5
20260906044527 17 321 0.0 0.0 0.00 0.00 0.00 84 1023.4
20260906043001 17 321 0.0 1.6 0.00 0.00 0.00 83 1023.4
20260906041534 17 10 0.0 1.6 0.00 0.00 0.00 82 1023.2
20260906040013 17 49 0.0 3.2 0.00 0.00 0.00 82 1023.2
20260906034654 17 325 0.0 1.6 0.00 0.00 0.00 78 1023.0
20260906033029 17 311 0.0 1.6 0.00 0.00 0.00 78 1022.9
20260906031502 17 311 0.0 3.2 0.00 0.00 0.00 79 1022.8
20260906030041 18 295 0.0 4.8 0.00 0.00 0.00 79 1022.8
20260906024522 18 281 0.0 1.6 0.00 0.00 0.00 78 1022.7
20260906023012 18 281 0.0 1.6 0.00 0.00 0.00 77 1022.6
20260906021535 18 271 0.0 1.6 0.00 0.00 0.00 78 1022.4
20260906020014 19 329 1.6 4.8 0.00 0.00 0.00 78 1022.4
20260906014621 18 198 0.0 0.0 0.00 0.00 0.00 80 1022.3
20260906013032 18 139 0.0 3.2 0.00 0.00 0.00 81 1022.3
20260906011506 18 254 0.0 4.8 0.00 0.00 0.00 81 1022.2
20260906010048 19 103 0.0 1.6 0.00 0.00 0.00 81 1022.0
20260906004530 19 103 0.0 0.0 0.00 0.00 0.00 81 1022.0
20260906001503 19 289 0.0 1.6 0.00 0.00 0.00 81 1022.0
20260906000104 20 289 0.0 1.6 0.00 0.00 0.00 80 1022.1
20260905234541 20 316 0.0 1.6 0.00 0.00 0.00 80 1022.0
20260905233019 20 9 0.0 1.6 0.00 0.00 0.00 79 1021.7
20260905231554 21 61 1.6 3.2 0.00 0.00 0.00 78 1021.7
20260905230041 21 75 0.0 4.8 0.00 0.00 0.00 77 1021.7
20260905224507 21 66 0.0 1.6 0.00 0.00 0.00 80 1021.6
20260905223052 21 258 0.0 3.2 0.00 0.00 0.00 80 1021.6
20260905221535 21 82 0.0 1.6 0.00 0.00 0.00 79 1021.3
20260905220022 21 82 0.0 0.0 0.00 0.00 0.00 79 1021.2
20260905214510 22 82 0.0 1.6 0.00 0.00 0.00 77 1021.1
20260905213056 22 76 0.0 3.2 0.00 0.00 0.00 74 1020.8
20260905211542 22 6 1.6 11.3 0.00 0.00 0.00 74 1020.8
20260905210026 22 2 3.2 8.0 0.00 0.00 0.00 74 1020.8
20260905204508 22 7 1.6 4.8 0.00 0.00 0.00 73 1020.8
20260905203100 22 357 1.6 4.8 0.00 0.00 0.00 74 1020.8
20260905201538 22 354 0.0 1.6 0.00 0.00 0.00 74 1020.6
20260905200009 23 306 0.0 3.2 0.00 0.00 0.00 73 1020.3
20260905194546 22 235 0.0 1.6 0.00 0.00 0.00 74 1020.0
20260905193028 23 1 0.0 3.2 0.00 0.00 0.00 71 1019.8
20260905191501 23 11 0.0 1.6 0.00 0.00 0.00 72 1019.8
20260905190047 23 350 1.6 1.6 0.00 0.00 0.00 70 1019.5
20260905184518 23 328 0.0 1.6 0.00 0.00 0.00 70 1019.4
20260905183050 24 288 0.0 1.6 0.00 0.00 0.00 68 1019.2
20260905181524 25 288 1.6 1.6 0.00 0.00 0.00 65 1019.0
20260905180056 25 286 1.6 4.8 0.00 0.00 0.00 63 1018.7
20260905174530 25 295 1.6 4.8 0.00 0.00 0.00 63 1018.5
20260905173005 26 309 1.6 3.2 0.00 0.00 0.00 61 1018.2
20260905171544 27 275 0.0 4.8 0.00 0.00 0.00 57 1017.9
20260905170011 28 252 6.4 14.5 0.00 0.00 0.00 54 1017.7
20260905164557 28 264 4.8 11.3 0.00 0.00 0.00 53 1017.7
20260905163026 28 274 4.8 16.1 0.00 0.00 0.00 52 1017.5
20260905161600 29 238 4.8 12.9 0.00 0.00 0.00 51 1017.4
20260905160032 30 175 3.2 11.3 0.00 0.00 0.00 50 1017.3
20260905154508 30 208 4.8 17.7 0.00 0.00 0.00 50 1017.2
20260905153053 30 222 3.2 12.9 0.00 0.00 0.00 50 1017.2
20260905151513 31 248 1.6 4.8 0.00 0.00 0.00 49 1017.1
20260905150045 31 171 1.6 8.0 0.00 0.00 0.00 50 1016.9
20260905144513 31 254 0.0 4.8 0.00 0.00 0.00 49 1017.0
20260905143044 30 234 0.0 6.4 0.00 0.00 0.00 51 1017.2
20260905141520 30 233 1.6 6.4 0.00 0.00 0.00 55 1017.2
20260905140046 30 333 1.6 3.2 0.00 0.00 0.00 52 1017.2
20260905134517 29 301 0.0 4.8 0.00 0.00 0.00 54 1017.3
20260905133046 30 241 4.8 8.0 0.00 0.00 0.00 53 1017.3
20260905131528 29 312 3.2 6.4 0.00 0.00 0.00 58 1017.4
20260905130051 28 13 1.6 6.4 0.00 0.00 0.00 55 1017.5
20260905124618 29 329 0.0 4.8 0.00 0.00 0.00 57 1017.6
20260905123048 28 269 1.6 6.4 0.00 0.00 0.00 59 1017.8
20260905121518 28 321 0.0 4.8 0.00 0.00 0.00 59 1017.9
20260905120049 29 278 0.0 4.8 0.00 0.00 0.00 57 1018.0
20260905114519 28 238 1.6 8.0 0.00 0.00 0.00 60 1018.2
20260905113050 28 152 1.6 4.8 0.00 0.00 0.00 59 1018.2
20260905111512 27 96 1.6 6.4 0.00 0.00 0.00 61 1018.3
20260905110046 27 219 0.0 4.8 0.00 0.00 0.00 62 1018.4
20260905104515 26 209 0.0 4.8 0.00 0.00 0.00 63 1018.5
20260905103048 26 220 0.0 3.2 0.00 0.00 0.00 63 1018.5
20260905101510 26 46 1.6 6.4 0.00 0.00 0.00 66 1018.6
20260905100042 25 233 3.2 6.4 0.00 0.00 0.00 65 1018.6
20260905094513 25 121 1.6 4.8 0.00 0.00 0.00 69 1018.9
20260905093042 24 184 0.0 3.2 0.00 0.00 0.00 71 1018.9
20260905091504 23 53 1.6 6.4 0.00 0.00 0.00 74 1019.0